Location: Lecco
(45.8566°N, 9.3977°E)
Time: 06:53:26
(UTC+02:00)

A-11 Canister half - Pass Details

Date: 21 August 2020
Orbit: 1514 x 1686 km, 47.2° (Epoch: 21 September)

Event Time Altitude Azimuth Distance (km) Brightness Sun altitude
Rises 20:48:14 0° 287° (WNW) 4,761 14.2 -5.4°
Reaches altitude 10° 20:51:16 10° 286° (WNW) 3,797 12.9 -5.9°
Maximum altitude 21:00:58 78° 203° (SSW) 1,663 9.2 -7.5°
Enters shadow 21:10:55 10° 119° (ESE) 3,892 10.4 -9.0°
